Flag for U.S.A. Weather past 2 weeks in Warren, Michigan, U.S.A.

Now
23 °F

Snow. Ice fog.


Feels Like: 12 °F
Forecast: 22 / 36 °F
Wind: 12 mph from Southeast

Location: Detroit City Airport

Current Time: Mar 3, 2015 at 10:59:10 AM

Latest Report: Mar 3, 2015 at 9:53 AM


Visibility: 0 mi

Pressure: 30.09 "Hg

Humidity: 85%

Dew point: 19 °F

Location of WarrenLocation

Historic Weather in Warren — Graph

°F

Warren temperature yesterday

Maximum temperature yesterday: 34 °F (at 2:53 PM)
Minimum temperature yesterday: 23 °F (at 6:53 AM)
Average temperature yesterday: 27 °F

Past Weeks' High & Low Weather Summary

 TemperatureHumidityPressure
High34 °F (Mar 2, 2:53 PM)87% (Feb 21, 8:53 PM)30.98 "Hg (Feb 21, 8:53 PM)
Low-9 °F (Feb 20, 6:53 AM)34% (Feb 27, 3:53 PM)28.11 "Hg (Mar 1, 1:53 PM)
Average14 °F60%30.23 "Hg
* Reported Feb 16 8:53 AM — Mar 3 8:53 AM, Warren, Weather by CustomWeather, © 2015

Note: Actual official high and low records may vary slightly from our data, if they occured in-between our weather recording intervals... More about our weather records

Advertising

Warren weather history for previous 24 hours

 ConditionsComfort  
Time TempWeatherWind HumidityBarometerVisibility
8:53 AM
Tue, Mar 3
23 °FSnow. Ice fog.12 mph85%30.15 "Hg0 mi
7:53 AM23 °FLight snow. Ice fog.7 mph74%30.19 "Hg1 mi
6:53 AM24 °FMostly cloudy.8 mph68%30.19 "Hg9 mi
5:53 AM24 °FOvercast.6 mph68%30.24 "Hg7 mi
4:53 AM25 °FPartly cloudy.5 mph69%30.26 "Hg7 mi
3:53 AM25 °FMostly cloudy.5 mph69%30.30 "Hg7 mi
2:53 AM26 °FMostly cloudy.5 mph63%30.32 "Hg8 mi
1:53 AM25 °FPassing clouds.5 mph66%30.35 "Hg7 mi
12:53 AM24 °FClear.6 mph65%30.36 "Hg8 mi
11:53 PM
Mon, Mar 2
25 °FClear.6 mph63%30.37 "Hg10 mi
10:53 PM23 °FClear.No wind65%30.40 "Hg10 mi
9:53 PM23 °FClear.3 mph63%30.42 "Hg10 mi
8:53 PM24 °FClear.No wind55%30.43 "Hg10 mi
7:53 PM29 °FClear.3 mph45%30.43 "Hg10 mi
6:53 PM30 °FClear.5 mph41%30.44 "Hg10 mi
5:53 PM32 °FSunny.6 mph38%30.43 "Hg10 mi
4:53 PM33 °FSunny.8 mph36%30.44 "Hg10 mi
3:53 PM33 °FSunny.7 mph36%30.45 "Hg10 mi
2:53 PM34 °FSunny.10 mph38%30.45 "Hg10 mi
1:53 PM33 °FSunny.8 mph40%30.45 "Hg10 mi
12:53 PM31 °FSunny.9 mph43%30.46 "Hg10 mi
11:53 AM30 °FSunny.12 mph45%30.47 "Hg10 mi
10:53 AM29 °FSunny.6 mph49%30.45 "Hg10 mi
Weather by CustomWeather, © 2015

See weather overviewHow to use our weather pages